"Pseudo-MPEC" for P11C4Q4

Created 2022 Nov 26 0:22:13 UT using Find_Orb

Click here for an explanation of pseudo-MPECs

 
 Astrometry: 
     P11C4Q4* C2022 11 24$Rm^dWU2!vHYk8Y9SVM1Msx#p/bh:'FF]:*Hq:4L6\+[N?t'O!mNF51
     P11C4Q4  C2022 11 24k%AstrometryEg3nIY;,sy.D9vK)3Vdau9CJn6C'`B[MUPPhE7xEF51
     P11C4Q4  C2022 11 24:lveu/v:JqSmvG)VDdfDuredacted;*td)1'1@sa`Ip\c@-ph]qqF51
     P11C4Q4  C2022 11 24:6V\6TXtOv#:V*%PXf6'6rD1nyceJW[`hPBPJKL'f(2EXD2I%HAIF51
     P11C4Q4  C2022 11 24Y!=2?\]vwd6(-f,284xtx,D0UI2QLFRCXKYoHwmf3usS'click`EF51
     P11C4Q4 hC2022 11 24;8?;69F53fBYs?kDyaFvT3d)`q0F=_6uu5v,+/rNBEm3jFtjw(#aL01
     P11C4Q4 hC2022 11 241d2vdOI@wy6fOBr^;Z`Gm*nBuk$R,6p2[Hh^he]$,2GXJX*V%RaML01
     P11C4Q4 hC2022 11 24N6rRh$B9w.tEvXgpkH\lab8E?qwZhereE%p=28vTQs=%rm8_/.*1L01
     P11C4Q4 hC2022 11 24DQk+9)QXU(8bbqtUGN`tEfl9X+fforj4dAYp4c!G]9rEVC?1EHK?L01
     P11C4Q4 hC2022 11 24mk2`Iqc5awT\V$qs%rkb1=bg;'R`)$%wok7?c.JQba.f2[E*'b;DL01
     P11C4Q4 hC2022 11 24J)_+[y59%f/p#N3$68Uyy=?1Se;ZM0$Qm\)=KBv7QGoYZMpr\IKhL01
     P11C4Q4 2C2022 11 246S-Qg4Ee/c8['[1sf2hm;p?wsEQ;[^IgK])q#l4Y+I`@5Y`G!`npJ04
     P11C4Q4 2C2022 11 24Vhn)3yEn8n5c+4b1#Ap\6oov=q7egGS5Q@iv5'jJDOC38Tj3$pI:J04
     P11C4Q4 2C2022 11 24f?j]j[H1)V!ZvDVeexplanationKFjIO3\gALUEw$9=w]Tg?VSH2J04
     P11C4Q4 KC2022 11 25T(/x8N#8Lg+cUid%fhr]@V7aOn:QZH3CKr#cj*PvG_V6I\WlT:fd734
     P11C4Q4 KC2022 11 25,M9ThD46W2k\*nEtRPJyi'6m=G_q;K\GROU@ND1+VB`Jg4#q9Vat734
     P11C4Q4 KC2022 11 25FT7mmb/rx0J(fEV0V;fX]\Kn_v-p][kL0^5?03O[;oK%6gkHJK*O734
     P11C4Q4 KC2022 11 25@jL'`ccVU5fmJ_$8i_-^?YUcWJ5aUQ6kiyHxihlm(p+q/m/(M77n734
     P11C4Q4 KC2022 11 25PU*5adK,.%.,nwxaYHmP1:99@gPXx*^T5MoSx!aW0nKaF3@IZJZt958
     P11C4Q4 KC2022 11 25ctn*$nb#x1g'uZ[\7E*c,+PT0*4^nb,RAoxRo/tQio1JQHp6eVA;958
     P11C4Q4 KC2022 11 257OKu=ciZov!okS:bvk+E/P%Yfjja,'jW.AFhjvC`gv'88Mw7O,g.958

Station data:
(734) Farpoint Observatory, Eskridge  (N38.890104 W96.001400)  US/Kansas.
   Observer G. Hug. 0.69-m reflector + CCD.
(958) Observatoire de Dax  (N43.693324 W1.030390)  France.  Observer P.
   Dupouy. 0.32-m Schmidt-Cassegrain.
(F51) Pan-STARRS 1, Haleakala  (N20.707234 W156.255910)  US/Hawaii.
   Observers J. Bulger, T. Lowe, A. Schultz, M. Willman. Measurers K.
   Chambers, S. Chastel, T. de Boer, L. Denneau, J. Fairlamb, H. Flewelling,
   M. Huber, C.-C. Lin, E. Magnier, Y. Ramanjooloo, R. Wainscoat, R. Weryk.
   1.8-m Ritchey-Chrétien + CCD.
(J04) ESA Optical Ground Station, Tenerife  (N28.300922 W16.511830)  Canary
   Islands (Spain).  Observer D. Abreu. Measurers M. Micheli, D. Koschny, E.
   Schwab, M. Busch, A. Knöfel. 1.0-m f/4.4 reflector + CCD.
(L01) Višnjan Observatory, Tičan  (N45.290897 E13.749300)  Croatia.
   Observers K. Korlević, D. Pujagic, V. Dobos. Measurers D. Pujagic, K.
   Korlević. 1.0-m f/2.9 reflector + CCD.

Orbital elements:  P11C4Q4
   Perihelion 2023 Jan 15.19428 +/- 0.0342 TT =  4:39:45 (JD 2459959.69428)
Epoch 2022 Nov 25.0 TT = JDT 2459908.5   Earth MOID: 0.0122   Ma: 0.0088
M 333.86016770 +/- 0.10             (J2000 ecliptic)          AutoNEOCP
n   0.51060062 +/- 0.00162          Peri.  240.90475 +/- 0.0013
a   1.55029787 +/- 0.00328          Node   247.49328 +/- 0.0035
e   0.4517170 +/- 0.00134           Incl.    9.75717 +/- 0.022
P   1.93/705.04d           H 25.5   G  0.15   U  8.4
q 0.85000190 +/- 0.000287    Q 2.25059385 +/- 0.00685
From 21 observations 2022 Nov. 24-25 (35.3 hr); mean residual 0".35
Residuals in arcseconds: 
221124 F51  .20-  .11-    221124 L01  .17-  .05-    221125 734  .11+  .73-    
221124 F51  .11-  .22-    221124 L01  .19-  .01-    221125 734  .19+  .82+    
221124 F51  .15+  .26+    221124 L01  .22-  .09-    221125 734  .22-  .34+    
221124 F51  .07+  .04-    221124 L01  .27-  .01+    221125 734  .08-  .66-    
221124 F51  .17+  .01+    221124 J04  .08+  .03+    221125 958  .55+  .18+    
221124 L01  .39+  .14-    221124 J04  .15+  .06-    221125 958  .52-  .95-    
221124 L01  .19-  .55+    221124 J04  .16+  .10+    221125 958  .04-  .78+    

Ephemerides (geocentric):
Date (UTC) HH   RA             Dec           delta  r     elong  mag " sig PA
---- --------  ------------   ------------  ------ ------ -----  --- --------
2022 11 26 00  02 45 09.731   +31 58 59.80  .05823 1.0416 158.9 20.4 .145 132
2022 11 26 01  02 45 06.501   +31 54 48.34  .05795 1.0414 158.9 20.4 .152 133
2022 11 26 02  02 45 03.254   +31 50 34.46  .05768 1.0411 158.9 20.4 .160 134
2022 11 26 03  02 44 59.988   +31 46 18.12  .05741 1.0408 158.9 20.4 .168 135
2022 11 26 04  02 44 56.705   +31 41 59.30  .05714 1.0406 158.9 20.4 .176 136
2022 11 26 05  02 44 53.403   +31 37 37.96  .05687 1.0403 158.9 20.4 .184 137
2022 11 26 06  02 44 50.082   +31 33 14.07  .05660 1.0400 158.9 20.4 .193 138
2022 11 26 07  02 44 46.742   +31 28 47.59  .05633 1.0398 158.8 20.4 .202 139
2022 11 26 08  02 44 43.383   +31 24 18.49  .05606 1.0395 158.8 20.4 .212 140
2022 11 26 09  02 44 40.005   +31 19 46.72  .05578 1.0392 158.8 20.3 .222 141
2022 11 26 10  02 44 36.608   +31 15 12.26  .05551 1.0390 158.8 20.3 .232 141
2022 11 26 11  02 44 33.190   +31 10 35.07  .05524 1.0387 158.8 20.3 .242 142
2022 11 26 12  02 44 29.753   +31 05 55.10  .05497 1.0384 158.8 20.3 .253 143
2022 11 26 13  02 44 26.295   +31 01 12.32  .05470 1.0382 158.8 20.3 .264 144
2022 11 26 14  02 44 22.816   +30 56 26.69  .05443 1.0379 158.8 20.3 .276 145
2022 11 26 15  02 44 19.317   +30 51 38.17  .05416 1.0376 158.8 20.3 .288 146
2022 11 26 16  02 44 15.797   +30 46 46.72  .05389 1.0374 158.8 20.3 .301 147
2022 11 26 17  02 44 12.255   +30 41 52.29  .05362 1.0371 158.7 20.3 .314 148
2022 11 26 18  02 44 08.692   +30 36 54.84  .05335 1.0369 158.7 20.3 .327 149
2022 11 26 19  02 44 05.106   +30 31 54.33  .05308 1.0366 158.7 20.2 .341 150
2022 11 26 20  02 44 01.499   +30 26 50.72  .05282 1.0363 158.7 20.2 .356 150
2022 11 26 21  02 43 57.869   +30 21 43.96  .05255 1.0361 158.7 20.2 .371 151
2022 11 26 22  02 43 54.216   +30 16 34.00  .05228 1.0358 158.7 20.2 .386 152
2022 11 26 23  02 43 50.541   +30 11 20.80  .05201 1.0355 158.7 20.2 .403 153
2022 11 27 00  02 43 46.842   +30 06 04.31  .05174 1.0353 158.7 20.2 .419 154
2022 11 27 01  02 43 43.119   +30 00 44.48  .05147 1.0350 158.6 20.2 .437 154
2022 11 27 02  02 43 39.373   +29 55 21.26  .05120 1.0347 158.6 20.2 .455 155
2022 11 27 03  02 43 35.602   +29 49 54.60  .05094 1.0345 158.6 20.2 .474 156
2022 11 27 04  02 43 31.806   +29 44 24.44  .05067 1.0342 158.6 20.1 .493 157
2022 11 27 05  02 43 27.986   +29 38 50.75  .05040 1.0340 158.6 20.1 .513 157
2022 11 27 06  02 43 24.140   +29 33 13.45  .05013 1.0337 158.6 20.1 .534 158
2022 11 27 07  02 43 20.269   +29 27 32.51  .04987 1.0334 158.5 20.1 .555 159
2022 11 27 08  02 43 16.371   +29 21 47.85  .04960 1.0332 158.5 20.1 .578 159
2022 11 27 09  02 43 12.448   +29 15 59.43  .04933 1.0329 158.5 20.1 .601 160
2022 11 27 10  02 43 08.497   +29 10 07.18  .04907 1.0326 158.5 20.1 .625 161
2022 11 27 11  02 43 04.520   +29 04 11.05  .04880 1.0324 158.5 20.1 .649 161
2022 11 27 12  02 43 00.515   +28 58 10.98  .04853 1.0321 158.4 20.0 .675 162
2022 11 27 13  02 42 56.483   +28 52 06.90  .04827 1.0318 158.4 20.0 .701 163
2022 11 27 14  02 42 52.422   +28 45 58.76  .04800 1.0316 158.4 20.0 .729 163
2022 11 27 15  02 42 48.333   +28 39 46.48  .04773 1.0313 158.4 20.0 .757 164
2022 11 27 16  02 42 44.214   +28 33 30.01  .04747 1.0311 158.4 20.0 .786 164
2022 11 27 17  02 42 40.067   +28 27 09.27  .04720 1.0308 158.3 20.0 .817 165
2022 11 27 18  02 42 35.889   +28 20 44.19  .04694 1.0305 158.3 20.0 .848 165
2022 11 27 19  02 42 31.681   +28 14 14.71  .04667 1.0303 158.3 20.0 .880 166
2022 11 27 20  02 42 27.443   +28 07 40.76  .04641 1.0300 158.3 20.0 .914 166
2022 11 27 21  02 42 23.173   +28 01 02.27  .04614 1.0297 158.2 19.9 .948 167
2022 11 27 22  02 42 18.872   +27 54 19.15  .04588 1.0295 158.2 19.9 .984 167
2022 11 27 23  02 42 14.539   +27 47 31.33  .04562 1.0292 158.2 19.9 1.02 168